Location: Uhersky Brod
(49.0330°N, 17.6500°E)
Time: 16:50:21
(UTC+02:00)

ISS - Visible Passes

Search period start: 21 May 2025 00:00
Search period end: 31 May 2025 00:00
Orbit: 416 x 419 km, 51.6° (Epoch: 21 May)

Date Brightness Start Highest point End Pass type
(mag) Time Alt. Az. Time Alt. Az. Time Alt. Az.
21 May -3.5 22:18:38 10° WNW 22:21:55 53° SSW 22:23:25 27° SE visible
22 May -3.8 21:30:32 10° WNW 21:33:54 75° SSW 21:37:02 11° ESE visible
22 May -1.7 23:08:00 10° W 23:09:57 17° SW 23:09:57 17° SW visible
23 May -2.3 22:19:31 10° W 22:22:20 25° SW 22:23:36 20° S visible
24 May -2.8 21:31:15 10° W 21:34:22 37° SSW 21:37:16 11° SE visible
25 May -1.3 22:21:23 10° WSW 22:22:31 11° SW 22:23:39 10° SSW visible
26 May -1.6 21:32:18 10° W 21:34:37 17° SW 21:36:55 10° S visible
